| time (UTC) | temp F | wind direction | speed MPH | gust MPH | rain 1hr in | rain 24hr in | rain mn in | humidity % | barometer mb |
| 20260503020657 | 75 | 246 | 0.0 | 0.0 | 0.00 | 0.00 | 0.00 | 32 | 1012.3 |
| 20260503020154 | 75 | 212 | 0.0 | 1.0 | 0.00 | 0.00 | 0.00 | 32 | 1012.3 |
| 20260503015651 | 75 | 228 | 1.0 | 2.0 | 0.00 | 0.00 | 0.00 | 32 | 1012.3 |
| 20260503015148 | 75 | 223 | 1.0 | 1.0 | 0.00 | 0.00 | 0.00 | 30 | 1012.2 |
| 20260503014644 | 75 | 352 | 3.0 | 6.0 | 0.00 | 0.00 | 0.00 | 30 | 1012.3 |
| 20260503014142 | 76 | 245 | 1.0 | 2.0 | 0.00 | 0.00 | 0.00 | 30 | 1012.2 |
| 20260503013639 | 76 | 22 | 3.0 | 4.0 | 0.00 | 0.00 | 0.00 | 29 | 1012.2 |
| 20260503013137 | 76 | 263 | 1.0 | 1.0 | 0.00 | 0.00 | 0.00 | 29 | 1012.3 |
| 20260503012633 | 77 | 281 | 1.0 | 2.0 | 0.00 | 0.00 | 0.00 | 28 | 1012.4 |
| 20260503012130 | 77 | 320 | 1.0 | 2.0 | 0.00 | 0.00 | 0.00 | 28 | 1012.3 |
| 20260503011627 | 77 | 208 | 1.0 | 2.0 | 0.00 | 0.00 | 0.00 | 28 | 1012.3 |
| 20260503011124 | 78 | 25 | 3.0 | 3.0 | 0.00 | 0.00 | 0.00 | 25 | 1012.3 |
| 20260503010620 | 78 | 209 | 0.0 | 0.0 | 0.00 | 0.00 | 0.00 | 22 | 1012.5 |
| 20260503010118 | 79 | 215 | 0.0 | 0.0 | 0.00 | 0.00 | 0.00 | 22 | 1012.5 |
| 20260503005614 | 79 | 212 | 0.0 | 0.0 | 0.00 | 0.00 | 0.00 | 21 | 1012.4 |
| 20260503005112 | 79 | 225 | 1.0 | 1.0 | 0.00 | 0.00 | 0.00 | 23 | 1012.4 |
| 20260503004608 | 79 | 167 | 1.0 | 2.0 | 0.00 | 0.00 | 0.00 | 22 | 1012.5 |
| 20260503004107 | 80 | 171 | 0.0 | 0.0 | 0.00 | 0.00 | 0.00 | 23 | 1012.4 |
| 20260503003603 | 81 | 320 | 1.0 | 3.0 | 0.00 | 0.00 | 0.00 | 21 | 1012.5 |
| 20260503003100 | 80 | 219 | 0.0 | 0.0 | 0.00 | 0.00 | 0.00 | 20 | 1012.5 |
| 20260503002556 | 80 | 278 | 1.0 | 1.0 | 0.00 | 0.00 | 0.00 | 21 | 1012.5 |
| 20260503002053 | 81 | 205 | 0.0 | 0.0 | 0.00 | 0.00 | 0.00 | 21 | 1012.4 |
| 20260503001549 | 82 | 205 | 1.0 | 1.0 | 0.00 | 0.00 | 0.00 | 22 | 1012.5 |
| 20260503001047 | 81 | 215 | 0.0 | 0.0 | 0.00 | 0.00 | 0.00 | 22 | 1012.4 |
| 20260503000544 | 81 | 223 | 1.0 | 2.0 | 0.00 | 0.00 | 0.00 | 20 | 1012.5 |
| 20260503000041 | 80 | 217 | 0.0 | 0.0 | 0.00 | 0.00 | 0.00 | 19 | 1013.0 |
| 20260502235537 | 80 | 206 | 1.0 | 1.0 | 0.00 | 0.00 | 0.00 | 21 | 1012.6 |
| 20260502235035 | 81 | 210 | 0.0 | 0.0 | 0.00 | 0.00 | 0.00 | 20 | 1012.8 |
| 20260502234531 | 79 | 160 | 0.0 | 0.0 | 0.00 | 0.00 | 0.00 | 20 | 1012.9 |
| 20260502234030 | 80 | 173 | 1.0 | 1.0 | 0.00 | 0.00 | 0.00 | 20 | 1012.8 |
| 20260502233530 | 79 | 201 | 0.0 | 0.0 | 0.00 | 0.00 | 0.00 | 20 | 1012.9 |
| 20260502233027 | 79 | 194 | 0.0 | 0.0 | 0.00 | 0.00 | 0.00 | 20 | 1012.8 |
| 20260502232523 | 80 | 199 | 1.0 | 1.0 | 0.00 | 0.00 | 0.00 | 21 | 1013.0 |
| 20260502232020 | 82 | 174 | 1.0 | 2.0 | 0.00 | 0.00 | 0.00 | 21 | 1012.9 |
| 20260502231517 | 80 | 236 | 1.0 | 1.0 | 0.00 | 0.00 | 0.00 | 20 | 1013.0 |
| 20260502231015 | 81 | 155 | 2.0 | 2.0 | 0.00 | 0.00 | 0.00 | 21 | 1013.1 |
| 20260502230513 | 80 | 283 | 2.0 | 3.0 | 0.00 | 0.00 | 0.00 | 20 | 1013.1 |
| 20260502230011 | 80 | 104 | 1.0 | 2.0 | 0.00 | 0.00 | 0.00 | 20 | 1013.2 |
| 20260502225506 | 81 | 265 | 2.0 | 3.0 | 0.00 | 0.00 | 0.00 | 21 | 1013.3 |
| 20260502225003 | 81 | 224 | 1.0 | 3.0 | 0.00 | 0.00 | 0.00 | 19 | 1013.2 |
| 20260502224459 | 79 | 164 | 1.0 | 2.0 | 0.00 | 0.00 | 0.00 | 20 | 1013.2 |
| 20260502223956 | 80 | 57 | 3.0 | 3.0 | 0.00 | 0.00 | 0.00 | 21 | 1013.3 |
| 20260502223454 | 80 | 75 | 5.0 | 6.0 | 0.00 | 0.00 | 0.00 | 21 | 1013.6 |
| 20260502222952 | 80 | 170 | 1.0 | 1.0 | 0.00 | 0.00 | 0.00 | 21 | 1013.6 |
| 20260502222449 | 80 | 199 | 2.0 | 2.0 | 0.00 | 0.00 | 0.00 | 22 | 1013.6 |
| 20260502221945 | 79 | 185 | 3.0 | 3.0 | 0.00 | 0.00 | 0.00 | 22 | 1013.6 |
| 20260502221441 | 79 | 184 | 2.0 | 2.0 | 0.00 | 0.00 | 0.00 | 22 | 1013.4 |
| 20260502220939 | 79 | 147 | 3.0 | 4.0 | 0.00 | 0.00 | 0.00 | 21 | 1013.6 |
| 20260502220434 | 79 | 207 | 1.0 | 1.0 | 0.00 | 0.00 | 0.00 | 22 | 1013.8 |
| 20260502215931 | 79 | 132 | 6.0 | 8.0 | 0.00 | 0.00 | 0.00 | 22 | 1013.8 |
| 20260502215429 | 79 | 103 | 4.0 | 6.0 | 0.00 | 0.00 | 0.00 | 22 | 1014.2 |
| 20260502214925 | 79 | 167 | 1.0 | 2.0 | 0.00 | 0.00 | 0.00 | 22 | 1014.2 |
| 20260502214422 | 80 | 151 | 3.0 | 4.0 | 0.00 | 0.00 | 0.00 | 22 | 1014.2 |
| 20260502213920 | 80 | 103 | 4.0 | 6.0 | 0.00 | 0.00 | 0.00 | 22 | 1014.4 |
| 20260502213416 | 80 | 180 | 0.0 | 1.0 | 0.00 | 0.00 | 0.00 | 22 | 1014.2 |
| 20260502212915 | 81 | 166 | 6.0 | 7.0 | 0.00 | 0.00 | 0.00 | 22 | 1014.2 |
| 20260502212413 | 79 | 205 | 2.0 | 3.0 | 0.00 | 0.00 | 0.00 | 22 | 1014.3 |
| 20260502211910 | 80 | 140 | 3.0 | 3.0 | 0.00 | 0.00 | 0.00 | 23 | 1014.3 |
| 20260502211405 | 81 | 156 | 6.0 | 8.0 | 0.00 | 0.00 | 0.00 | 23 | 1014.5 |
| 20260502210903 | 81 | 107 | 1.0 | 1.0 | 0.00 | 0.00 | 0.00 | 24 | 1014.5 |
| 20260502210400 | 81 | 208 | 6.0 | 7.0 | 0.00 | 0.00 | 0.00 | 23 | 1014.6 |
| 20260502205857 | 80 | 221 | 2.0 | 2.0 | 0.00 | 0.00 | 0.00 | 25 | 1014.7 |
| 20260502205353 | 79 | 220 | 0.0 | 1.0 | 0.00 | 0.00 | 0.00 | 22 | 1014.8 |
| 20260502204850 | 78 | 83 | 2.0 | 2.0 | 0.00 | 0.00 | 0.00 | 22 | 1014.8 |
| 20260502204347 | 78 | 162 | 6.0 | 9.0 | 0.00 | 0.00 | 0.00 | 22 | 1014.8 |
| 20260502203845 | 79 | 86 | 2.0 | 2.0 | 0.00 | 0.00 | 0.00 | 23 | 1014.9 |
| 20260502203342 | 79 | 140 | 4.0 | 4.0 | 0.00 | 0.00 | 0.00 | 23 | 1014.8 |
| 20260502202838 | 78 | 188 | 5.0 | 6.0 | 0.00 | 0.00 | 0.00 | 24 | 1014.9 |
| 20260502202335 | 79 | 172 | 6.0 | 9.0 | 0.00 | 0.00 | 0.00 | 23 | 1015.0 |
| 20260502201833 | 79 | 205 | 3.0 | 4.0 | 0.00 | 0.00 | 0.00 | 25 | 1015.0 |
| 20260502201329 | 78 | 185 | 4.0 | 4.0 | 0.00 | 0.00 | 0.00 | 25 | 1015.0 |
| 20260502200826 | 77 | 173 | 6.0 | 8.0 | 0.00 | 0.00 | 0.00 | 24 | 1015.0 |
| 20260502200321 | 79 | 192 | 4.0 | 6.0 | 0.00 | 0.00 | 0.00 | 24 | 1015.2 |
| 20260502195820 | 78 | 151 | 3.0 | 4.0 | 0.00 | 0.00 | 0.00 | 25 | 1015.1 |
| 20260502195316 | 78 | 197 | 3.0 | 3.0 | 0.00 | 0.00 | 0.00 | 25 | 1015.4 |
| 20260502194813 | 78 | 191 | 5.0 | 7.0 | 0.00 | 0.00 | 0.00 | 27 | 1015.4 |
| 20260502194310 | 78 | 246 | 0.0 | 0.0 | 0.00 | 0.00 | 0.00 | 31 | 1015.4 |
| 20260502193805 | 76 | 211 | 0.0 | 0.0 | 0.00 | 0.00 | 0.00 | 32 | 1015.4 |
| 20260502193303 | 76 | 168 | 0.0 | 1.0 | 0.00 | 0.00 | 0.00 | 32 | 1015.6 |
| 20260502192758 | 75 | 121 | 3.0 | 3.0 | 0.00 | 0.00 | 0.00 | 32 | 1015.8 |
| 20260502192256 | 75 | 90 | 2.0 | 3.0 | 0.00 | 0.00 | 0.00 | 35 | 1015.9 |
| 20260502191752 | 75 | 219 | 0.0 | 0.0 | 0.00 | 0.00 | 0.00 | 32 | 1016.0 |
| 20260502191250 | 75 | 217 | 2.0 | 3.0 | 0.00 | 0.00 | 0.00 | 32 | 1016.1 |
| 20260502190747 | 75 | 34 | 3.0 | 4.0 | 0.00 | 0.00 | 0.00 | 33 | 1016.0 |
| 20260502190244 | 74 | 203 | 0.0 | 1.0 | 0.00 | 0.00 | 0.00 | 33 | 1016.0 |
| 20260502185739 | 75 | 90 | 3.0 | 4.0 | 0.00 | 0.00 | 0.00 | 33 | 1016.1 |
| 20260502185236 | 74 | 211 | 4.0 | 4.0 | 0.00 | 0.00 | 0.00 | 34 | 1016.2 |
| 20260502184732 | 73 | 220 | 2.0 | 3.0 | 0.00 | 0.00 | 0.00 | 35 | 1016.2 |
| 20260502184228 | 73 | 143 | 3.0 | 4.0 | 0.00 | 0.00 | 0.00 | 36 | 1016.5 |
| 20260502183725 | 72 | 67 | 2.0 | 2.0 | 0.00 | 0.00 | 0.00 | 35 | 1016.6 |
| 20260502183220 | 72 | 158 | 4.0 | 6.0 | 0.00 | 0.00 | 0.00 | 35 | 1016.5 |
| 20260502182716 | 72 | 198 | 2.0 | 3.0 | 0.00 | 0.00 | 0.00 | 37 | 1016.8 |
| 20260502182211 | 73 | 113 | 4.0 | 6.0 | 0.00 | 0.00 | 0.00 | 36 | 1016.9 |
| 20260502181708 | 72 | 181 | 1.0 | 1.0 | 0.00 | 0.00 | 0.00 | 37 | 1016.9 |
| 20260502181203 | 72 | 180 | 2.0 | 2.0 | 0.00 | 0.00 | 0.00 | 37 | 1016.8 |
| 20260502180659 | 71 | 224 | 1.0 | 2.0 | 0.00 | 0.00 | 0.00 | 38 | 1016.9 |
| 20260502180156 | 71 | 329 | 2.0 | 3.0 | 0.00 | 0.00 | 0.00 | 39 | 1016.9 |
| 20260502170120 | 65 | 228 | 1.0 | 2.0 | 0.00 | 0.00 | 0.00 | 42 | 1017.3 |
| 20260502164101 | 64 | 201 | 2.0 | 3.0 | 0.00 | 0.00 | 0.00 | 43 | 1017.5 |
| 20260502163557 | 63 | 220 | 1.0 | 2.0 | 0.00 | 0.00 | 0.00 | 42 | 1017.5 |
| 20260502163054 | 64 | 200 | 2.0 | 2.0 | 0.00 | 0.00 | 0.00 | 43 | 1017.6 |
| 20260502162551 | 62 | 202 | 2.0 | 3.0 | 0.00 | 0.00 | 0.00 | 45 | 1017.7 |
| 20260502162048 | 62 | 228 | 3.0 | 4.0 | 0.00 | 0.00 | 0.00 | 45 | 1017.6 |
| 20260502161545 | 62 | 177 | 3.0 | 3.0 | 0.00 | 0.00 | 0.00 | 46 | 1017.5 |
| 20260502161042 | 60 | 154 | 2.0 | 2.0 | 0.00 | 0.00 | 0.00 | 47 | 1017.6 |
| 20260502160540 | 60 | 218 | 5.0 | 7.0 | 0.00 | 0.00 | 0.00 | 46 | 1017.6 |
| 20260502151953 | 59 | 124 | 3.0 | 4.0 | 0.00 | 0.00 | 0.00 | 50 | 1017.4 |
| 20260502151450 | 58 | 153 | 2.0 | 2.0 | 0.00 | 0.00 | 0.00 | 51 | 1017.5 |
| 20260502150947 | 58 | 156 | 3.0 | 3.0 | 0.00 | 0.00 | 0.00 | 50 | 1017.3 |
| 20260502150444 | 58 | 149 | 3.0 | 4.0 | 0.00 | 0.00 | 0.00 | 50 | 1017.5 |
| 20260502130329 | 51 | 198 | 2.0 | 2.0 | 0.00 | 0.00 | 0.00 | 55 | 1016.6 |
| 20260502123815 | 51 | 221 | 2.0 | 2.0 | 0.00 | 0.00 | 0.00 | 56 | 1016.8 |
| 20260502123312 | 51 | 188 | 0.0 | 0.0 | 0.00 | 0.00 | 0.00 | 57 | 1016.6 |
| 20260502122809 | 51 | 223 | 1.0 | 1.0 | 0.00 | 0.00 | 0.00 | 57 | 1016.8 |
| 20260502122306 | 52 | 203 | 2.0 | 2.0 | 0.00 | 0.00 | 0.00 | 55 | 1016.8 |
| 20260502121803 | 51 | 181 | 2.0 | 3.0 | 0.00 | 0.00 | 0.00 | 56 | 1016.8 |
| 20260502121301 | 51 | 207 | 3.0 | 4.0 | 0.00 | 0.00 | 0.00 | 57 | 1016.8 |
| 20260502120757 | 51 | 163 | 2.0 | 2.0 | 0.00 | 0.00 | 0.00 | 56 | 1016.5 |
| 20260502120254 | 52 | 182 | 2.0 | 2.0 | 0.00 | 0.00 | 0.00 | 56 | 1016.5 |
| 20260502115752 | 52 | 169 | 2.0 | 2.0 | 0.00 | 0.00 | 0.00 | 55 | 1016.3 |
| 20260502115248 | 52 | 180 | 2.0 | 3.0 | 0.00 | 0.00 | 0.00 | 54 | 1016.5 |
| 20260502114744 | 52 | 189 | 3.0 | 4.0 | 0.00 | 0.00 | 0.00 | 55 | 1016.8 |
| 20260502114241 | 51 | 143 | 3.0 | 3.0 | 0.00 | 0.00 | 0.00 | 57 | 1016.6 |
| 20260502113738 | 51 | 162 | 1.0 | 3.0 | 0.00 | 0.00 | 0.00 | 57 | 1016.6 |
| 20260502113236 | 51 | 179 | 2.0 | 2.0 | 0.00 | 0.00 | 0.00 | 57 | 1016.9 |
| 20260502112734 | 51 | 178 | 2.0 | 2.0 | 0.00 | 0.00 | 0.00 | 56 | 1016.8 |
| 20260502112231 | 52 | 191 | 1.0 | 1.0 | 0.00 | 0.00 | 0.00 | 56 | 1017.0 |
| 20260502111728 | 52 | 161 | 2.0 | 3.0 | 0.00 | 0.00 | 0.00 | 56 | 1016.9 |
| 20260502111226 | 52 | 184 | 5.0 | 6.0 | 0.00 | 0.00 | 0.00 | 56 | 1016.9 |
| 20260502110723 | 51 | 165 | 3.0 | 3.0 | 0.00 | 0.00 | 0.00 | 57 | 1016.8 |
| 20260502110221 | 52 | 196 | 1.0 | 1.0 | 0.00 | 0.00 | 0.00 | 57 | 1016.9 |
| 20260502105719 | 52 | 204 | 0.0 | 1.0 | 0.00 | 0.00 | 0.00 | 56 | 1017.1 |
| 20260502105215 | 52 | 197 | 1.0 | 1.0 | 0.00 | 0.00 | 0.00 | 56 | 1016.6 |
| 20260502104713 | 52 | 187 | 1.0 | 2.0 | 0.00 | 0.00 | 0.00 | 55 | 1016.6 |
| 20260502104210 | 52 | 162 | 2.0 | 2.0 | 0.00 | 0.00 | 0.00 | 55 | 1017.0 |
| 20260502103707 | 53 | 201 | 4.0 | 4.0 | 0.00 | 0.00 | 0.00 | 55 | 1016.4 |
| 20260502103205 | 53 | 168 | 2.0 | 2.0 | 0.00 | 0.00 | 0.00 | 55 | 1016.9 |
| 20260502102702 | 53 | 176 | 1.0 | 2.0 | 0.00 | 0.00 | 0.00 | 55 | 1016.8 |
| 20260502102158 | 53 | 179 | 3.0 | 3.0 | 0.00 | 0.00 | 0.00 | 55 | 1016.8 |
| 20260502101656 | 53 | 187 | 1.0 | 2.0 | 0.00 | 0.00 | 0.00 | 54 | 1016.8 |
| 20260502101154 | 53 | 194 | 2.0 | 2.0 | 0.00 | 0.00 | 0.00 | 54 | 1016.9 |
| 20260502100653 | 53 | 191 | 1.0 | 2.0 | 0.00 | 0.00 | 0.00 | 54 | 1016.9 |
| 20260502100151 | 54 | 157 | 6.0 | 8.0 | 0.00 | 0.00 | 0.00 | 52 | 1016.8 |
| 20260502091125 | 53 | 201 | 2.0 | 2.0 | 0.00 | 0.00 | 0.00 | 54 | 1016.6 |
| 20260502090621 | 53 | 145 | 2.0 | 2.0 | 0.00 | 0.00 | 0.00 | 53 | 1016.6 |
| 20260502090119 | 53 | 185 | 1.0 | 2.0 | 0.00 | 0.00 | 0.00 | 54 | 1016.8 |
| 20260502071516 | 55 | 191 | 1.0 | 1.0 | 0.00 | 0.00 | 0.00 | 50 | 1017.0 |
| 20260502071014 | 56 | 187 | 2.0 | 2.0 | 0.00 | 0.00 | 0.00 | 50 | 1017.2 |
| 20260502070512 | 56 | 159 | 2.0 | 3.0 | 0.00 | 0.00 | 0.00 | 50 | 1017.2 |
| 20260502070010 | 56 | 187 | 1.0 | 2.0 | 0.00 | 0.00 | 0.00 | 50 | 1017.2 |
| 20260502065508 | 56 | 157 | 4.0 | 4.0 | 0.00 | 0.00 | 0.00 | 49 | 1017.0 |
| 20260502065006 | 56 | 157 | 4.0 | 6.0 | 0.00 | 0.00 | 0.00 | 49 | 1017.1 |
| 20260502064504 | 56 | 143 | 4.0 | 4.0 | 0.00 | 0.00 | 0.00 | 50 | 1017.0 |
| 20260502064001 | 56 | 162 | 3.0 | 4.0 | 0.00 | 0.00 | 0.00 | 50 | 1017.1 |
| 20260502063459 | 56 | 156 | 3.0 | 3.0 | 0.00 | 0.00 | 0.00 | 50 | 1017.1 |
| 20260502062956 | 56 | 164 | 4.0 | 6.0 | 0.00 | 0.00 | 0.00 | 49 | 1017.2 |
| 20260502062452 | 56 | 155 | 3.0 | 4.0 | 0.00 | 0.00 | 0.00 | 50 | 1017.3 |
| 20260502061951 | 56 | 139 | 4.0 | 4.0 | 0.00 | 0.00 | 0.00 | 50 | 1017.2 |
| 20260502061449 | 56 | 181 | 3.0 | 3.0 | 0.00 | 0.00 | 0.00 | 50 | 1017.3 |
| 20260502060944 | 56 | 169 | 3.0 | 3.0 | 0.00 | 0.00 | 0.00 | 50 | 1017.1 |
| 20260502060440 | 56 | 148 | 3.0 | 4.0 | 0.00 | 0.00 | 0.00 | 49 | 1016.9 |
| 20260502055937 | 56 | 178 | 2.0 | 2.0 | 0.00 | 0.00 | 0.00 | 50 | 1017.1 |
| 20260502055435 | 55 | 154 | 3.0 | 3.0 | 0.00 | 0.00 | 0.00 | 50 | 1017.0 |
| 20260502054929 | 56 | 176 | 2.0 | 2.0 | 0.00 | 0.00 | 0.00 | 49 | 1017.3 |
| 20260502054427 | 56 | 154 | 2.0 | 3.0 | 0.00 | 0.00 | 0.00 | 49 | 1017.2 |
| 20260502053924 | 57 | 187 | 2.0 | 3.0 | 0.00 | 0.00 | 0.00 | 49 | 1017.0 |
| 20260502053421 | 57 | 165 | 2.0 | 3.0 | 0.00 | 0.00 | 0.00 | 48 | 1017.2 |
| 20260502052918 | 57 | 159 | 2.0 | 2.0 | 0.00 | 0.00 | 0.00 | 48 | 1017.2 |
| 20260502052416 | 57 | 153 | 3.0 | 3.0 | 0.00 | 0.00 | 0.00 | 47 | 1017.2 |
| 20260502051914 | 57 | 160 | 4.0 | 6.0 | 0.00 | 0.00 | 0.00 | 47 | 1017.2 |
| 20260502051412 | 57 | 175 | 2.0 | 2.0 | 0.00 | 0.00 | 0.00 | 46 | 1017.3 |
| 20260502050909 | 57 | 184 | 0.0 | 0.0 | 0.00 | 0.00 | 0.00 | 47 | 1017.3 |
| 20260502050405 | 57 | 174 | 1.0 | 1.0 | 0.00 | 0.00 | 0.00 | 45 | 1017.1 |
| 20260502045903 | 57 | 174 | 0.0 | 1.0 | 0.00 | 0.00 | 0.00 | 45 | 1017.2 |
| 20260502045359 | 58 | 182 | 1.0 | 1.0 | 0.00 | 0.00 | 0.00 | 45 | 1017.1 |
| 20260502044856 | 58 | 159 | 1.0 | 1.0 | 0.00 | 0.00 | 0.00 | 44 | 1017.1 |
| 20260502044352 | 59 | 156 | 1.0 | 2.0 | 0.00 | 0.00 | 0.00 | 43 | 1017.1 |
| 20260502043849 | 59 | 151 | 2.0 | 2.0 | 0.00 | 0.00 | 0.00 | 42 | 1017.2 |
| 20260502043347 | 59 | 203 | 0.0 | 0.0 | 0.00 | 0.00 | 0.00 | 42 | 1017.2 |
| 20260502042846 | 59 | 144 | 1.0 | 1.0 | 0.00 | 0.00 | 0.00 | 41 | 1017.3 |
| 20260502042344 | 59 | 145 | 1.0 | 1.0 | 0.00 | 0.00 | 0.00 | 42 | 1017.4 |
| 20260502041841 | 58 | 129 | 1.0 | 2.0 | 0.00 | 0.00 | 0.00 | 43 | 1017.3 |
| 20260502041338 | 59 | 200 | 0.0 | 0.0 | 0.00 | 0.00 | 0.00 | 44 | 1017.2 |
| 20260502040835 | 59 | 165 | 0.0 | 1.0 | 0.00 | 0.00 | 0.00 | 42 | 1017.1 |
| 20260502040332 | 59 | 187 | 0.0 | 0.0 | 0.00 | 0.00 | 0.00 | 44 | 1017.1 |
| 20260502035828 | 60 | 194 | 0.0 | 0.0 | 0.00 | 0.00 | 0.00 | 42 | 1017.0 |
| 20260502035325 | 61 | 181 | 0.0 | 0.0 | 0.00 | 0.00 | 0.00 | 41 | 1017.1 |
| 20260502034822 | 61 | 161 | 0.0 | 0.0 | 0.00 | 0.00 | 0.00 | 38 | 1017.0 |
| 20260502034321 | 61 | 189 | 0.0 | 0.0 | 0.00 | 0.00 | 0.00 | 41 | 1017.0 |
| 20260502033819 | 62 | 197 | 0.0 | 0.0 | 0.00 | 0.00 | 0.00 | 39 | 1017.0 |
| 20260502033316 | 61 | 206 | 0.0 | 0.0 | 0.00 | 0.00 | 0.00 | 41 | 1017.0 |
| 20260502032813 | 62 | 199 | 0.0 | 0.0 | 0.00 | 0.00 | 0.00 | 39 | 1016.9 |
| 20260502032309 | 62 | 198 | 0.0 | 0.0 | 0.00 | 0.00 | 0.00 | 37 | 1016.9 |
| 20260502031807 | 63 | 198 | 0.0 | 0.0 | 0.00 | 0.00 | 0.00 | 39 | 1016.6 |
| 20260502031305 | 64 | 198 | 0.0 | 0.0 | 0.00 | 0.00 | 0.00 | 37 | 1016.8 |
| 20260502030803 | 65 | 196 | 0.0 | 0.0 | 0.00 | 0.00 | 0.00 | 36 | 1016.5 |
| 20260502030300 | 66 | 201 | 0.0 | 0.0 | 0.00 | 0.00 | 0.00 | 35 | 1016.6 |
| 20260502025758 | 66 | 198 | 0.0 | 0.0 | 0.00 | 0.00 | 0.00 | 34 | 1016.5 |
| 20260502025256 | 66 | 201 | 0.0 | 0.0 | 0.00 | 0.00 | 0.00 | 32 | 1016.6 |
| 20260502024753 | 67 | 203 | 0.0 | 0.0 | 0.00 | 0.00 | 0.00 | 33 | 1016.5 |
| 20260502024250 | 68 | 203 | 0.0 | 0.0 | 0.00 | 0.00 | 0.00 | 29 | 1016.4 |
| 20260502023749 | 69 | 202 | 0.0 | 0.0 | 0.00 | 0.00 | 0.00 | 29 | 1016.5 |
| 20260502023246 | 69 | 203 | 0.0 | 0.0 | 0.00 | 0.00 | 0.00 | 28 | 1016.3 |
| 20260502022744 | 70 | 202 | 0.0 | 0.0 | 0.00 | 0.00 | 0.00 | 28 | 1016.4 |
| 20260502022239 | 71 | 197 | 0.0 | 0.0 | 0.00 | 0.00 | 0.00 | 27 | 1016.4 |
| 20260502021737 | 71 | 193 | 0.0 | 0.0 | 0.00 | 0.00 | 0.00 | 27 | 1016.5 |
| 20260502021234 | 71 | 200 | 0.0 | 0.0 | 0.00 | 0.00 | 0.00 | 27 | 1016.2 |